[[{"header":{"parameterUnit":"m.s-1","parameterCategory":1,"la1":30.2991,"la2":30.254,"lo1":-89.0895,"lo2":-89.0444,"dy":0.0017,"dx":0.0017,"nx":28,"ny":28,"refTime":"2023-10-15T21:00:00:Z","depth":0,"parameterNumber":2,"parameterNumberName":"U-component_of_WINDS"},"data":[0,0,0,0,0,0,0,0,0,0,0,0,0,0,0,0,0,0,0,0,0,0,0,0,0,0,0,0,0,0,0,0,0,0,0,0,0,0,0,0,0,0,0,0,0,0,0,0,0,0,0,0,0,0,0,0,0,0,-0.5692,-0.5692,0,-0.5762,-0.5763,-0.5764,-0.5731,-0.573,-0.5728,-0.5726,-0.58,-0.5803,-0.5807,0,0,0,0,0,0,0,0,0,0,0,0,0,-0.5529,-0.5532,-0.5692,-0.5693,-0.5693,-0.5762,-0.5763,-0.5764,-0.5732,-0.573,-0.5727,-0.5725,-0.5798,-0.5803,-0.5807,0,0,0,0,0,0,0,0,0,0,0,0,0,-0.56,-0.5533,-0.5692,-0.5685,-0.5686,-0.5762,-0.5763,-0.5764,-0.5732,-0.5729,-0.5727,-0.5724,-0.5797,-0.5802,-0.5808,-0.5894,0,0,-0.5824,-0.5826,0,0,0,0,0,0,0,0,-0.5596,-0.5606,-0.5685,-0.5686,-0.5686,-0.5735,-0.5733,-0.5808,-0.5733,-0.5715,-0.5726,-0.5723,-0.578,-0.5787,-0.5806,-0.5898,-0.5901,-0.5825,-0.5828,-0.583,-0.5832,0,0,0,0,0,0,0,-0.5591,-0.5602,-0.572,-0.5687,-0.5687,-0.5679,-0.5686,-0.5747,-0.5762,-0.5716,-0.5714,-0.5722,-0.578,-0.5801,-0.5808,-0.5902,-0.5824,-0.5829,-0.5833,-0.5835,-0.6068,-0.6071,0,0,0,0,0,0,-0.5586,-0.5599,-0.5717,-0.5722,-0.5633,-0.5684,-0.5692,-0.5722,-0.5761,-0.5764,-0.5725,-0.5721,-0.5793,-0.5801,-0.581,-0.5915,-0.583,-0.5835,-0.5838,-0.6065,-0.6069,-0.6072,0,0,0,0,0,0,-0.5583,-0.5597,-0.5715,-0.566,-0.5674,-0.569,-0.5724,-0.5725,-0.5746,-0.5767,-0.577,-0.5743,-0.5791,-0.5802,-0.5873,-0.5917,-0.5838,-0.5843,-0.6062,-0.6066,-0.607,-0.6124,0,0,0,0,0,0,-0.5578,-0.5596,-0.5629,-0.5661,-0.5677,-0.5777,-0.5727,-0.5728,-0.5755,-0.5751,-0.5786,-0.5789,-0.579,-0.5866,-0.5879,-0.5923,-0.5847,-0.6058,-0.6064,-0.6069,-0.6119,-0.613,-0.614,0,0,0,0,0,-0.5572,-0.5642,-0.5631,-0.5645,-0.5719,-0.578,-0.5789,-0.5789,-0.5759,-0.5792,-0.5806,-0.5788,-0.5909,-0.5873,-0.5888,-0.5934,-0.6055,-0.6062,-0.6069,-0.6114,-0.6128,-0.6139,0,0,0,0,0,0,-0.5615,-0.5646,-0.5634,-0.5716,-0.5745,-0.5774,-0.5816,-0.5803,-0.5842,-0.5836,-0.5834,-0.5843,-0.5916,-0.5932,-0.5891,-0.602,-0.5978,-0.5988,-0.6007,-0.6021,-0.6031,-0.6026,-0.5851,0,0,0,0,0,-0.5634,-0.5681,-0.5705,-0.5774,-0.579,-0.58,-0.5827,-0.5824,-0.5855,-0.5867,-0.5886,-0.5917,-0.5962,-0.5992,-0.6034,-0.612,-0.6127,-0.6159,-0.6169,-0.6178,-0.6187,-0.6233,-0.6248,-0.6094,-0.6094,-0.6094,0,0,-0.5674,-0.5696,-0.5726,-0.5783,-0.5806,-0.5855,-0.5811,-0.5865,-0.5901,-0.5875,-0.5944,-0.5959,-0.5993,-0.6071,-0.6107,-0.6087,-0.6231,-0.6186,-0.6193,-0.6197,-0.6242,-0.6256,-0.6269,-0.6098,-0.6097,-0.6097,0,0,-0.5771,-0.5792,-0.5853,-0.5876,-0.5911,-0.5917,-0.5932,-0.5962,-0.5971,-0.604,-0.6022,-0.6064,-0.6142,-0.6167,-0.619,-0.6296,-0.628,-0.6309,-0.6365,-0.641,-0.6422,-0.6433,-0.6472,-0.6485,-0.6318,-0.6318,-0.6318,0,-0.5817,-0.5889,-0.5886,-0.5941,-0.5967,-0.5945,-0.6006,-0.6029,-0.6076,-0.6094,-0.607,-0.6167,-0.6189,-0.6273,-0.6299,-0.6318,-0.6335,-0.6306,-0.6421,-0.6431,-0.6441,-0.6478,-0.6493,-0.6321,-0.6321,-0.6321,-0.632,0,-0.5943,-0.5993,-0.6038,-0.6084,-0.6114,-0.6172,-0.6178,-0.6209,-0.6203,-0.6212,-0.6282,-0.6307,-0.6354,-0.6373,-0.6368,-0.6457,-0.6444,-0.642,-0.6378,-0.646,-0.6494,-0.6508,-0.6326,-0.6325,-0.6324,-0.6323,0,0,-0.6071,-0.6113,-0.613,-0.615,-0.6186,-0.6225,-0.6282,-0.6328,-0.6355,-0.6387,-0.6435,-0.6501,-0.6479,-0.6505,-0.6502,-0.6542,-0.6625,-0.6514,-0.6515,-0.6535,-0.6725,-0.6744,-0.676,-0.6614,-0.6617,-0.6619,-0.6723,0,-0.6172,-0.6271,-0.627,-0.6362,-0.6408,-0.6388,-0.6437,-0.6464,-0.6474,-0.6515,-0.6525,-0.6572,-0.654,-0.6555,-0.6594,-0.6607,-0.6663,-0.6599,-0.6659,-0.6662,-0.6653,-0.6778,-0.6798,-0.6894,-0.6736,-0.6738,-0.674,0,-0.6303,-0.634,-0.6437,-0.6466,-0.6485,-0.653,-0.6571,-0.661,-0.6641,-0.6645,-0.6674,-0.6664,-0.6722,-0.6677,-0.6756,-0.6712,-0.6736,-0.6746,-0.675,-0.6757,-0.6707,-0.6789,-0.6925,-0.694,-0.6761,-0.6759,-0.6758,0,-0.6389,-0.6462,-0.6529,-0.6547,-0.6582,-0.6614,-0.663,-0.6658,-0.6685,-0.6721,-0.6739,-0.6782,-0.6805,-0.6838,-0.6841,-0.6808,-0.6921,-0.6876,-0.6926,-0.6927,-0.6953,-0.6951,-0.7096,-0.6966,-0.6966,-0.6966,-0.6965,0,-0.6502,-0.6562,-0.6568,-0.661,-0.6676,-0.6673,-0.674,-0.6753,-0.6777,-0.6821,-0.6805,-0.6847,-0.6847,-0.6889,-0.6891,-0.6957,-0.6967,-0.6972,-0.6972,-0.6975,-0.6974,-0.6992,-0.6985,-0.6969,-0.6969,-0.6968,-0.6967,0,-0.6609,-0.6615,-0.6688,-0.6714,-0.6722,-0.6771,-0.6794,-0.6833,-0.6841,-0.6896,-0.6909,-0.6921,-0.697,-0.6975,-0.7032,-0.7033,-0.7113,-0.7105,-0.7103,-0.7102,-0.7152,-0.7148,-0.7314,-0.7336,-0.7191,-0.7192,-0.7194,0,-0.6682,-0.6728,-0.676,-0.6788,-0.6805,-0.6851,-0.6879,-0.6877,-0.6907,-0.6945,-0.698,-0.7027,-0.7065,-0.7143,-0.7157,-0.7201,-0.7194,-0.725,-0.7201,-0.7202,-0.7197,-0.7194,-0.7199,-0.726,-0.7261,-0.7263,-0.7264,0,-0.6811,-0.6812,-0.6852,-0.6894,-0.6928,-0.6961,-0.6992,-0.7015,-0.7018,-0.7052,-0.7101,-0.7131,-0.7188,-0.7235,-0.7278,-0.7294,-0.728,-0.7278,-0.7293,-0.7296,-0.7293,-0.7297,-0.713,-0.7275,-0.7274,-0.7273,-0.7273,-0.7272,-0.6904,-0.6944,-0.6972,-0.7018,-0.7041,-0.707,-0.7109,-0.7121,-0.7162,-0.7209,-0.7205,-0.726,-0.7288,-0.7344,-0.7363,-0.7406,-0.7388,-0.7408,-0.7413,-0.7419,-0.7424,-0.7285,-0.7413,-0.7413,-0.7413,-0.7413,-0.7412,0,-0.7033,-0.705,-0.7092,-0.7136,-0.7172,-0.7154,-0.7187,-0.7218,-0.7267,-0.7295,-0.7332,-0.7389,-0.7434,-0.7451,-0.7495,-0.7526,-0.7521,-0.7538,-0.7536,-0.754,-0.7438,-0.7422,-0.7542,-0.7542,-0.7542,-0.7542,-0.7542,-0.7542,-0.7104,-0.7171,-0.7175,-0.7252,-0.7269,-0.7323,-0.7343,-0.737,-0.7392,-0.7456,-0.7493,-0.7504,-0.7527,-0.7573,-0.7614,-0.7617,-0.7635,-0.7655,-0.7656,-0.7561,-0.7548,-0.7535,-0.752,-0.7659,-0.7659,-0.7756,-0.7757,-0.7757]},{"header":{"parameterUnit":"m.s-1","parameterCategory":1,"la1":30.2991,"la2":30.254,"lo1":-89.0895,"lo2":-89.0444,"dy":0.0017,"dx":0.0017,"nx":28,"ny":28,"refTime":"2023-10-15T21:00:00:Z","depth":0,"parameterNumber":3,"parameterNumberName":"V-component_of_WINDS"},"data":[0,0,0,0,0,0,0,0,0,0,0,0,0,0,0,0,0,0,0,0,0,0,0,0,0,0,0,0,0,0,0,0,0,0,0,0,0,0,0,0,0,0,0,0,0,0,0,0,0,0,0,0,0,0,0,0,0,0,-4.1619,-4.1619,0,-4.1665,-4.1666,-4.1666,-4.1603,-4.1601,-4.1598,-4.1596,-4.1642,-4.1645,-4.1648,0,0,0,0,0,0,0,0,0,0,0,0,0,-4.147,-4.1473,-4.1619,-4.1619,-4.162,-4.1665,-4.1666,-4.1667,-4.1603,-4.16,-4.1598,-4.1595,-4.1641,-4.1644,-4.1648,0,0,0,0,0,0,0,0,0,0,0,0,0,-4.1527,-4.1474,-4.1618,-4.1594,-4.1592,-4.1665,-4.1666,-4.1667,-4.1604,-4.16,-4.1597,-4.1594,-4.1639,-4.1644,-4.1649,-4.1748,0,0,-4.1664,-4.1666,0,0,0,0,0,0,0,0,-4.1524,-4.1533,-4.1597,-4.1596,-4.1594,-4.1625,-4.163,-4.1694,-4.1605,-4.1599,-4.1596,-4.1592,-4.1639,-4.1643,-4.166,-4.175,-4.1752,-4.1665,-4.1668,-4.167,-4.1671,0,0,0,0,0,0,0,-4.152,-4.1531,-4.1637,-4.1598,-4.1596,-4.1579,-4.1583,-4.1642,-4.1637,-4.1599,-4.1595,-4.1601,-4.1637,-4.1655,-4.166,-4.1753,-4.1665,-4.1669,-4.1672,-4.1674,-4.1924,-4.1927,0,0,0,0,0,0,-4.152,-4.1528,-4.1635,-4.1638,-4.155,-4.1584,-4.1589,-4.1618,-4.1637,-4.1636,-4.1604,-4.1598,-4.1648,-4.1654,-4.1662,-4.1777,-4.167,-4.1675,-4.1677,-4.192,-4.1925,-4.1928,0,0,0,0,0,0,-4.1517,-4.153,-4.1634,-4.1582,-4.1594,-4.159,-4.1624,-4.1621,-4.1639,-4.164,-4.1639,-4.1624,-4.1646,-4.1655,-4.1726,-4.1777,-4.1677,-4.1681,-4.1916,-4.1921,-4.1927,-4.2009,0,0,0,0,0,0,-4.1513,-4.1529,-4.1568,-4.1583,-4.1597,-4.1699,-4.1627,-4.1624,-4.1648,-4.164,-4.1658,-4.1658,-4.1644,-4.1719,-4.1731,-4.1782,-4.1685,-4.1911,-4.1918,-4.1925,-4.2002,-4.2017,-4.2029,0,0,0,0,0,-4.1508,-4.159,-4.1571,-4.1584,-4.1645,-4.1702,-4.171,-4.1693,-4.1652,-4.169,-4.1691,-4.1657,-4.177,-4.1727,-4.174,-4.1794,-4.1908,-4.1916,-4.1924,-4.1996,-4.2014,-4.2029,0,0,0,0,0,0,-4.158,-4.1591,-4.157,-4.166,-4.1681,-4.1692,-4.1739,-4.1713,-4.1746,-4.1737,-4.1714,-4.1718,-4.1795,-4.1801,-4.1754,-4.1889,-4.1832,-4.1843,-4.1882,-4.1899,-4.1913,-4.1909,-4.1689,0,0,0,0,0,-4.1607,-4.1654,-4.166,-4.1738,-4.175,-4.1743,-4.1767,-4.1752,-4.1772,-4.1781,-4.1787,-4.1807,-4.1847,-4.1873,-4.191,-4.2003,-4.2004,-4.2045,-4.2059,-4.2071,-4.208,-4.2127,-4.2145,-4.1955,-4.1955,-4.1955,0,0,-4.1662,-4.1674,-4.1705,-4.1753,-4.1768,-4.1814,-4.1751,-4.1804,-4.1838,-4.1789,-4.1856,-4.1862,-4.1882,-4.1964,-4.2001,-4.1972,-4.2133,-4.2081,-4.209,-4.2093,-4.2137,-4.2155,-4.2171,-4.1961,-4.196,-4.1959,0,0,-4.1786,-4.1801,-4.1866,-4.1882,-4.1904,-4.1899,-4.1915,-4.1929,-4.1931,-4.1999,-4.1962,-4.2001,-4.2071,-4.2087,-4.2104,-4.2232,-4.2201,-4.2244,-4.2316,-4.2362,-4.2377,-4.239,-4.2433,-4.245,-4.2254,-4.2254,-4.2254,0,-4.1852,-4.1922,-4.1903,-4.1958,-4.1979,-4.1937,-4.2002,-4.2018,-4.2051,-4.2066,-4.2034,-4.2119,-4.213,-4.2214,-4.2245,-4.2261,-4.2276,-4.2242,-4.2377,-4.2389,-4.2401,-4.2442,-4.2459,-4.2259,-4.2259,-4.2258,-4.2258,0,-4.2,-4.205,-4.21,-4.2133,-4.216,-4.222,-4.2208,-4.2237,-4.2219,-4.2217,-4.2285,-4.2297,-4.2334,-4.2353,-4.2336,-4.2434,-4.2415,-4.2381,-4.2322,-4.2425,-4.2463,-4.2479,-4.2266,-4.2265,-4.2263,-4.2262,0,0,-4.2172,-4.2193,-4.2211,-4.2225,-4.2246,-4.2283,-4.2339,-4.2376,-4.2401,-4.2425,-4.247,-4.253,-4.2497,-4.2516,-4.25,-4.2541,-4.2639,-4.2501,-4.2501,-4.2524,-4.2744,-4.2769,-4.2788,-4.2619,-4.2622,-4.2624,-4.2742,0,-4.2295,-4.2394,-4.2377,-4.2472,-4.2516,-4.2475,-4.2524,-4.2542,-4.254,-4.2576,-4.2574,-4.2615,-4.257,-4.2581,-4.262,-4.2619,-4.2682,-4.261,-4.2659,-4.2661,-4.2654,-4.2808,-4.2835,-4.2946,-4.2757,-4.2759,-4.2761,0,-4.2451,-4.2481,-4.258,-4.2592,-4.261,-4.2654,-4.2685,-4.2721,-4.2738,-4.2734,-4.2755,-4.2731,-4.2786,-4.2728,-4.2802,-4.2753,-4.2772,-4.2775,-4.2778,-4.2781,-4.2717,-4.2814,-4.2981,-4.2997,-4.2785,-4.2783,-4.2781,0,-4.2564,-4.2629,-4.2696,-4.2709,-4.2725,-4.2757,-4.2764,-4.2779,-4.2801,-4.2828,-4.2842,-4.2875,-4.2893,-4.2918,-4.2903,-4.2863,-4.2978,-4.292,-4.2975,-4.2975,-4.3,-4.2999,-4.3172,-4.3016,-4.3015,-4.3015,-4.3015,0,-4.2702,-4.2764,-4.2747,-4.2788,-4.2855,-4.2835,-4.2902,-4.2904,-4.2917,-4.2957,-4.2924,-4.2962,-4.294,-4.2976,-4.2965,-4.3026,-4.3035,-4.3032,-4.3028,-4.3034,-4.3034,-4.3045,-4.3036,-4.3019,-4.3018,-4.3017,-4.3017,0,-4.284,-4.2831,-4.2901,-4.291,-4.2913,-4.2962,-4.2969,-4.3006,-4.3002,-4.3052,-4.3063,-4.3056,-4.3096,-4.3084,-4.3127,-4.3119,-4.3197,-4.3184,-4.3191,-4.3187,-4.3242,-4.3236,-4.3427,-4.345,-4.328,-4.3282,-4.3283,0,-4.2928,-4.2974,-4.2988,-4.3012,-4.3022,-4.3062,-4.3084,-4.3065,-4.3089,-4.3112,-4.3146,-4.3183,-4.3212,-4.3278,-4.3275,-4.3308,-4.3294,-4.3359,-4.3299,-4.3303,-4.3293,-4.329,-4.3293,-4.337,-4.3372,-4.3374,-4.3375,0,-4.3084,-4.3077,-4.3111,-4.3142,-4.317,-4.3194,-4.3215,-4.3236,-4.3218,-4.3247,-4.3287,-4.3309,-4.3353,-4.3389,-4.3418,-4.3425,-4.3397,-4.3394,-4.3408,-4.3414,-4.3416,-4.3414,-4.3222,-4.339,-4.3388,-4.3387,-4.3386,-4.3386,-4.3199,-4.3237,-4.3252,-4.329,-4.3303,-4.3323,-4.3358,-4.3357,-4.3391,-4.3425,-4.3411,-4.3457,-4.3471,-4.3507,-4.3517,-4.3552,-4.3527,-4.3548,-4.3553,-4.3558,-4.3564,-4.3411,-4.3557,-4.3557,-4.3557,-4.3556,-4.3556,0,-4.3352,-4.3358,-4.3394,-4.3423,-4.3452,-4.3423,-4.3444,-4.347,-4.3511,-4.3527,-4.3556,-4.3601,-4.3636,-4.3636,-4.3668,-4.3695,-4.3683,-4.3704,-4.3701,-4.3703,-4.3586,-4.3569,-4.3713,-4.3713,-4.3713,-4.3713,-4.3713,-4.3713,-4.3435,-4.3497,-4.3491,-4.3559,-4.3566,-4.361,-4.3624,-4.3642,-4.3654,-4.3706,-4.3734,-4.3734,-4.3743,-4.3775,-4.3805,-4.3804,-4.3816,-4.3842,-4.3836,-4.3727,-4.3711,-4.3696,-4.3681,-4.3846,-4.3846,-4.395,-4.3951,-4.3952]}]]